timestamp,surface_pressure_avg,surface_temp_avg,battery_voltage,lat,long
2022-05-08 00:09:01+00:00,256.7531,4.03,12.01,47.84626,-54.09684
2022-05-08 00:19:00+00:00,258.4764,4.05,11.93,47.84626,-54.09684
2022-05-08 00:29:00+00:00,256.7214,4.06,11.93,47.84626,-54.09684
2022-05-08 00:39:00+00:00,257.1431,4.06,11.93,47.84626,-54.09684
2022-05-08 00:49:00+00:00,260.1781,4.07,11.93,47.84626,-54.09684
2022-05-08 00:59:00+00:00,265.2097,4.07,11.93,47.84626,-54.09684
2022-05-08 01:09:00+00:00,266.3098,4.07,11.93,47.84626,-54.09684
2022-05-08 01:19:01+00:00,269.1847,4.05,12.01,47.84626,-54.09684
2022-05-08 01:29:01+00:00,275.4897,4.0,12.01,47.84626,-54.09684
2022-05-08 01:39:01+00:00,283.9197,4.0,12.01,47.84626,-54.09684
2022-05-08 01:49:01+00:00,286.4348,4.0,12.01,47.84626,-54.09684
2022-05-08 01:59:01+00:00,288.8281,4.0,12.01,47.84626,-54.09684
2022-05-08 02:09:01+00:00,295.7997,3.9,12.01,47.84626,-54.09684
2022-05-08 02:19:00+00:00,303.2147,3.8,11.93,47.84626,-54.09684
2022-05-08 02:29:00+00:00,303.5797,3.9,11.93,47.84626,-54.09684
2022-05-08 02:39:00+00:00,302.1964,3.94,11.93,47.84626,-54.09684
2022-05-08 02:49:00+00:00,305.8796,3.9,11.93,47.84626,-54.09684
2022-05-08 02:59:00+00:00,312.2579,3.9,11.93,47.84626,-54.09684
2022-05-08 03:09:00+00:00,315.938,3.8,11.93,47.84626,-54.09684
2022-05-08 03:19:00+00:00,316.9447,3.8,11.93,47.84626,-54.09684
2022-05-08 03:29:00+00:00,319.7814,3.8,11.93,47.84626,-54.09684
2022-05-08 03:39:00+00:00,321.1229,3.68,11.93,47.84626,-54.09684
2022-05-08 03:49:00+00:00,320.8547,3.47,11.93,47.84626,-54.09684
2022-05-08 03:59:00+00:00,320.2446,3.4,11.93,47.84626,-54.09684
2022-05-08 04:09:00+00:00,322.288,3.4,11.93,47.84626,-54.09684
2022-05-08 04:19:01+00:00,325.9146,3.4,11.93,47.84626,-54.09684
2022-05-08 04:29:01+00:00,325.8395,3.42,11.93,47.84626,-54.09684
2022-05-08 04:39:01+00:00,326.3046,3.46,11.93,47.84626,-54.09684
2022-05-08 04:49:01+00:00,325.568,3.5,11.93,47.84626,-54.09684
2022-05-08 04:59:01+00:00,326.0131,3.5,11.93,47.84626,-54.09684
2022-05-08 05:09:01+00:00,326.3331,3.54,11.93,47.84626,-54.09684
2022-05-08 05:19:00+00:00,323.8279,3.57,11.93,47.84626,-54.09684
2022-05-08 05:29:00+00:00,326.2029,3.5,11.93,47.84626,-54.09684
2022-05-08 05:39:00+00:00,327.9213,3.4,11.93,47.84626,-54.09684
2022-05-08 05:49:00+00:00,322.418,3.47,11.93,47.84626,-54.09684
2022-05-08 05:59:00+00:00,317.5247,3.5,11.93,47.84626,-54.09684
2022-05-08 06:09:00+00:00,318.2647,3.5,11.93,47.84626,-54.09684
2022-05-08 06:19:01+00:00,316.9979,3.51,11.93,47.84626,-54.09684
2022-05-08 06:29:01+00:00,308.6763,3.52,11.93,47.84626,-54.09684
2022-05-08 06:39:01+00:00,302.2246,3.6,11.93,47.84626,-54.09684
2022-05-08 06:49:01+00:00,302.9847,3.6,11.93,47.84626,-54.09684
2022-05-08 06:59:01+00:00,298.553,3.65,11.93,47.84626,-54.09684
2022-05-08 07:09:01+00:00,292.613,3.64,11.93,47.84626,-54.09684
2022-05-08 07:19:00+00:00,290.9197,3.69,11.93,47.84626,-54.09684
2022-05-08 07:29:00+00:00,290.0864,3.7,11.93,47.84626,-54.09684
2022-05-08 07:39:00+00:00,281.2864,3.7,11.93,47.84626,-54.09684
2022-05-08 07:49:00+00:00,273.4797,3.6,11.93,47.84626,-54.09684
2022-05-08 07:59:00+00:00,272.2697,3.6,11.93,47.84626,-54.09684
2022-05-08 08:09:00+00:00,267.7997,3.6,11.93,47.84626,-54.09684
2022-05-08 08:19:00+00:00,260.2931,3.6,11.93,47.84626,-54.09684
2022-05-08 08:29:00+00:00,254.9648,3.6,11.93,47.84626,-54.09684
2022-05-08 08:39:00+00:00,253.4381,3.6,11.93,47.84626,-54.09684
2022-05-08 08:49:00+00:00,247.7281,3.6,11.93,47.84626,-54.09684
2022-05-08 08:59:00+00:00,240.2331,3.58,11.93,47.84626,-54.09684
2022-05-08 09:09:00+00:00,236.1447,3.5,11.93,47.84626,-54.09684
2022-05-08 09:19:01+00:00,236.4465,3.4,11.93,47.84626,-54.09684
2022-05-08 09:29:01+00:00,233.2614,3.38,11.93,47.84626,-54.09684
2022-05-08 09:39:01+00:00,230.9298,3.3,11.93,47.84626,-54.09684
2022-05-08 09:49:01+00:00,230.0881,3.3,11.93,47.84626,-54.09684
2022-05-08 09:59:01+00:00,228.8148,3.33,11.93,47.84626,-54.09684
2022-05-08 10:09:01+00:00,227.9765,3.38,11.93,47.84626,-54.09684
2022-05-08 10:19:01+00:00,228.4314,3.4,12.09,47.84626,-54.09684
2022-05-08 10:29:01+00:00,226.5948,3.4,12.09,47.84626,-54.09684
2022-05-08 10:39:01+00:00,225.8914,3.4,12.09,47.84626,-54.09684
2022-05-08 10:49:01+00:00,228.9264,3.4,12.09,47.84626,-54.09684
2022-05-08 10:59:01+00:00,232.3231,3.4,12.09,47.84626,-54.09684
2022-05-08 11:09:01+00:00,235.0948,3.45,12.09,47.84626,-54.09684
2022-05-08 11:19:01+00:00,240.2114,3.47,12.25,47.84626,-54.09684
2022-05-08 11:29:01+00:00,241.1164,3.48,12.25,47.84626,-54.09684
2022-05-08 11:39:01+00:00,241.6581,3.48,12.25,47.84626,-54.09684
2022-05-08 11:49:01+00:00,241.6197,3.47,12.25,47.84626,-54.09684
2022-05-08 11:59:01+00:00,241.9048,3.46,12.25,47.84626,-54.09684
2022-05-08 12:09:01+00:00,239.2631,3.45,12.25,47.84626,-54.09684
2022-05-08 12:19:01+00:00,239.3465,3.45,12.33,47.84626,-54.09684
2022-05-08 12:29:01+00:00,238.6447,3.44,12.33,47.84626,-54.09684
2022-05-08 12:39:01+00:00,240.7364,3.4,12.33,47.84626,-54.09684
2022-05-08 12:49:01+00:00,242.7964,3.4,12.33,47.84626,-54.09684
2022-05-08 12:59:01+00:00,243.5414,3.4,12.33,47.84626,-54.09684
2022-05-08 13:09:01+00:00,243.9747,3.4,12.33,47.84626,-54.09684
2022-05-08 13:19:00+00:00,248.4081,3.4,12.33,47.84626,-54.09684
2022-05-08 13:29:00+00:00,252.1847,3.35,12.33,47.84626,-54.09684
2022-05-08 13:39:00+00:00,255.1064,3.3,12.33,47.84626,-54.09684
2022-05-08 13:49:00+00:00,259.3814,3.3,12.33,47.84626,-54.09684
2022-05-08 13:59:00+00:00,262.1331,3.3,12.33,47.84626,-54.09684
2022-05-08 14:09:00+00:00,262.0281,3.3,12.33,47.84626,-54.09684
2022-05-08 14:19:01+00:00,267.3914,3.3,12.41,47.84626,-54.09684
2022-05-08 14:29:01+00:00,276.5064,3.24,12.41,47.84626,-54.09684
2022-05-08 14:39:01+00:00,281.653,3.2,12.41,47.84626,-54.09684
2022-05-08 14:49:01+00:00,280.298,3.2,12.41,47.84626,-54.09684
2022-05-08 14:59:01+00:00,283.1614,3.2,12.41,47.84626,-54.09684
2022-05-08 15:09:01+00:00,289.0148,3.2,12.41,47.84626,-54.09684
2022-05-08 15:19:01+00:00,291.1296,3.19,12.33,47.84626,-54.09684
2022-05-08 15:29:01+00:00,288.8197,3.18,12.33,47.84626,-54.09684
2022-05-08 15:39:01+00:00,290.7463,3.14,12.33,47.84626,-54.09684
2022-05-08 15:49:01+00:00,292.4781,3.14,12.33,47.84626,-54.09684
2022-05-08 15:59:01+00:00,290.6064,3.17,12.33,47.84626,-54.09684
2022-05-08 16:09:01+00:00,289.7764,3.19,12.33,47.84626,-54.09684
2022-05-08 16:19:01+00:00,291.5814,3.2,12.33,47.84626,-54.09684
2022-05-08 16:29:01+00:00,290.3713,3.23,12.33,47.84626,-54.09684
2022-05-08 16:39:01+00:00,291.353,3.3,12.33,47.84626,-54.09684
2022-05-08 16:49:01+00:00,296.6164,3.3,12.33,47.84626,-54.09684
2022-05-08 16:59:01+00:00,296.7847,3.39,12.33,47.84626,-54.09684
2022-05-08 17:09:01+00:00,294.3181,3.39,12.33,47.84626,-54.09684
2022-05-08 17:19:00+00:00,295.0696,3.38,12.25,47.84626,-54.09684
2022-05-08 17:29:00+00:00,296.7713,3.05,12.25,47.84626,-54.09684
2022-05-08 17:39:00+00:00,294.9481,2.8,12.25,47.84626,-54.09684
2022-05-08 17:49:00+00:00,295.138,2.92,12.25,47.84626,-54.09684
2022-05-08 17:59:00+00:00,294.8046,3.1,12.25,47.84626,-54.09684
2022-05-08 18:09:00+00:00,292.7314,3.2,12.25,47.84626,-54.09684
2022-05-08 18:19:01+00:00,288.6163,3.19,12.17,47.84626,-54.09684
2022-05-08 18:29:01+00:00,287.7131,3.0,12.17,47.84626,-54.09684
2022-05-08 18:39:01+00:00,284.9214,2.97,12.17,47.84626,-54.09684
2022-05-08 18:49:01+00:00,278.2764,2.9,12.17,47.84626,-54.09684
2022-05-08 18:59:01+00:00,274.3631,3.01,12.17,47.84626,-54.09684
2022-05-08 19:09:01+00:00,272.7548,3.2,12.17,47.84626,-54.09684
2022-05-08 19:19:01+00:00,265.96299999999997,3.27,12.17,47.84626,-54.09684
2022-05-08 19:29:01+00:00,260.8248,3.24,12.17,47.84626,-54.09684
2022-05-08 19:39:01+00:00,260.1014,3.24,12.17,47.84626,-54.09684
2022-05-08 19:49:01+00:00,256.9948,3.3,12.17,47.84626,-54.09684
2022-05-08 19:59:01+00:00,248.2997,3.4,12.17,47.84626,-54.09684
2022-05-08 20:09:01+00:00,244.9515,3.5,12.17,47.84626,-54.09684
2022-05-08 20:19:01+00:00,244.1597,3.55,12.09,47.84626,-54.09684
2022-05-08 20:29:01+00:00,239.0364,3.63,12.09,47.84626,-54.09684
2022-05-08 20:39:01+00:00,235.1381,3.7,12.09,47.84626,-54.09684
2022-05-08 20:49:01+00:00,235.7964,3.7,12.09,47.84626,-54.09684
2022-05-08 20:59:01+00:00,234.3331,3.76,12.09,47.84626,-54.09684
2022-05-08 21:09:01+00:00,230.1964,3.8,12.09,47.84626,-54.09684
2022-05-08 21:19:01+00:00,229.3564,3.81,12.09,47.84626,-54.09684
2022-05-08 21:29:01+00:00,231.8381,3.9,12.09,47.84626,-54.09684
2022-05-08 21:39:01+00:00,230.2897,3.9,12.09,47.84626,-54.09684
2022-05-08 21:49:01+00:00,226.4614,3.9,12.09,47.84626,-54.09684
2022-05-08 21:59:01+00:00,224.7947,3.97,12.09,47.84626,-54.09684
2022-05-08 22:09:01+00:00,224.7948,4.0,12.09,47.84626,-54.09684
2022-05-08 22:19:01+00:00,224.4831,4.0,12.09,47.84626,-54.09684
2022-05-08 22:29:01+00:00,224.0081,4.0,12.09,47.84626,-54.09684
2022-05-08 22:39:01+00:00,226.7698,4.0,12.09,47.84626,-54.09684
2022-05-08 22:49:01+00:00,226.6314,4.0,12.09,47.84626,-54.09684
2022-05-08 22:59:01+00:00,224.9198,4.0,12.09,47.84626,-54.09684
2022-05-08 23:09:01+00:00,227.2581,4.0,12.09,47.84626,-54.09684
2022-05-08 23:19:01+00:00,231.8698,4.0,12.09,47.84626,-54.09684
2022-05-08 23:29:01+00:00,230.2647,4.0,12.09,47.84626,-54.09684
2022-05-08 23:39:01+00:00,226.9247,4.03,12.09,47.84626,-54.09684
2022-05-08 23:49:01+00:00,228.1697,4.1,12.09,47.84626,-54.09684
2022-05-08 23:59:01+00:00,231.2198,4.17,12.09,47.84626,-54.09684
